Starlink 32580

operational
NORAD ID: 62075 Int'l Des: 2024-217 Owner: SPXS Country: US Constellation: starlink
LEOCIRCULAR

About Starlink 32580

Description loading...

Live Position

Loading 3D Globe...

Upcoming Passes

Altitude History

Altitude vs Time

uPlot chart will show altitude changes over time

Two-Line Element Set

1 62075U 24217U 25303.74474052 .00036443 00000-0 12352-2 0 9997
2 62075 53.1615 64.8805 0000387 76.8869 283.2175 15.30235802 53708
Epoch: Oct 30, 2025 • Age: 23 hours

Current Status

Altitude 479.3 km
Velocity 7.63 km/s
Sub-Earth Point -15.79°S, 37.92°W
Launch Date Nov 24, 2024
Age 0.9 years
Type internet

Technical Details

Classification Payload
Mass 730.00 kg
Dry Mass 700.00 kg
Total Mass 730.00 kg
Length 0.30 m
Diameter 4.10 m
Span 29.00 m
Shape Box + pan
Manufacturer SPXS
Bus Type Starlink V2M
Phase Status In Orbit
Owner/State SPXS/US

Large Constellations

Loading constellations...